Wind_Speed
37 36 36 40 38 37 39 40 37 36 35 36 39 42 41 44 51 56 53 54 53 49 49 47 42 40 40 41 45 46 48 46 38 36 28 30 34 35 35 33 29 29 29 28 26
44 46 43 43 44 40 39 42 42 40 38 37 38 41 42 39 44 51 54 55 55 51 50 49 46 43 40 40 43 44 45 40 36 33 32 35 38 40 39 36 29 28 31 29 27
49 50 52 54 54 48 44 42 45 44 41 39 38 37 40 44 38 41 53 54 54 52 51 50 50 47 43 43 43 43 43 37 36 34 37 40 40 40 41 38 28 28 28 32 32
56 59 63 60 51 49 50 47 46 47 46 41 40 39 38 39 42 39 45 52 53 53 53 51 49 50 47 46 44 44 42 39 37 39 40 39 40 40 40 37 29 30 30 31 32
68 71 70 70 64 57 53 48 50 48 47 45 41 39 38 35 39 40 41 47 52 52 51 51 49 49 50 48 48 47 45 43 41 41 42 39 37 39 38 37 33 31 35 35 34
78 80 75 70 71 62 61 59 53 51 47 44 43 40 39 34 40 40 41 44 45 50 49 50 49 49 49 51 52 50 49 48 46 43 42 39 36 36 36 40 40 33 36 38 37
82 70 66 58 50 48 53 64 57 52 48 43 42 43 38 38 36 41 41 40 47 44 48 47 48 50 49 49 50 53 51 49 46 43 43 43 39 36 39 42 43 36 34 36 34
67 57 49 38 32 33 34 53 61 54 49 45 43 44 38 39 36 38 41 41 43 39 40 46 48 48 49 50 49 50 51 50 45 47 46 46 37 38 39 43 43 38 36 36 34
56 47 39 24 18 15 16 33 55 56 49 47 41 43 38 37 34 37 40 37 37 41 35 36 43 46 47 49 49 50 49 47 45 46 46 46 40 37 42 43 42 41 38 36 34
51 39 20 5 6 11 14 16 37 57 51 49 45 37 37 34 35 34 39 36 34 37 37 33 29 32 45 47 48 46 46 46 44 47 46 45 42 38 41 42 42 42 40 37 35
51 39 4 5 8 8 15 7 26 51 52 51 43 39 37 36 35 34 37 38 35 36 33 34 34 41 34 38 42 46 47 48 45 44 44 42 43 38 36 42 44 42 42 41 39
44 28 16 12 13 17 17 8 20 51 51 46 44 41 36 32 31 33 36 36 36 34 38 32 33 33 35 35 33 40 44 41 40 42 44 42 40 40 39 42 45 43 42 42 41
41 25 14 14 14 20 22 16 25 53 52 44 44 41 41 33 31 31 33 34 33 32 30 31 29 30 34 37 35 35 34 32 35 38 40 40 40 38 38 40 42 42 43 43 43
41 31 22 17 17 19 17 9 38 61 59 48 46 38 33 33 30 33 34 35 34 29 30 32 30 31 30 30 30 30 30 30 28 32 36 36 37 29 35 35 36 37 39 39 40
39 33 17 18 14 12 8 21 50 64 58 49 46 39 36 31 30 33 34 34 32 30 28 30 29 29 29 27 27 25 23 22 24 26 29 29 37 24 27 28 29 31 34 38 40
37 31 18 11 8 4 7 35 58 55 37 48 45 41 36 32 30 31 34 33 32 32 32 30 26 26 27 26 24 21 20 22 21 21 24 23 29 28 22 27 30 34 36 39 41
35 27 18 10 5 11 31 43 50 30 40 48 45 41 32 30 31 31 31 31 29 28 27 24 23 23 23 23 21 18 19 19 19 19 18 19 24 23 24 28 32 35 39 42 45
32 17 13 10 28 47 48 36 29 42 38 45 40 35 30 29 30 28 30 28 27 22 21 23 24 24 23 21 20 19 18 18 17 18 20 21 23 24 29 29 31 35 39 44 48
25 15 17 37 47 46 34 32 36 36 37 47 39 32 30 28 26 28 30 26 25 22 23 24 23 21 20 18 17 16 17 16 18 20 21 22 23 24 27 31 34 37 37 40 44
23 36 44 50 41 34 31 35 27 31 34 40 38 31 25 25 23 32 28 26 23 23 24 22 21 20 18 17 16 17 15 15 17 21 21 21 22 22 23 26 28 32 35 37 39
46 49 45 40 32 29 31 28 28 32 37 33 28 24 22 22 25 25 26 23 24 24 22 21 20 17 16 17 16 14 15 16 17 19 22 22 19 20 20 25 30 33 35 37 41
38 34 33 30 29 39 34 28 29 27 28 26 22 22 19 21 27 22 23 23 22 22 19 17 16 17 17 15 14 13 14 13 16 19 20 24 10 18 25 27 29 32 36 41 48
31 28 25 28 32 33 27 33 30 27 24 23 21 22 21 25 28 22 22 23 21 19 17 17 18 17 16 15 13 13 13 17 19 17 15 20 17 21 20 24 29 32 33 43 51
25 25 24 27 27 22 23 27 27 24 20 17 15 17 18 21 24 20 20 20 19 20 19 18 16 15 13 12 12 15 17 17 17 16 13 19 9 22 25 25 29 32 38 37 44
21 21 18 19 19 20 20 22 20 19 17 14 13 11 13 19 23 19 20 19 20 19 17 16 14 14 13 13 14 15 16 16 14 14 8 13 17 15 21 26 32 32 26 29 36
8 6 6 10 12 20 19 19 17 15 14 11 12 10 10 17 23 22 19 18 18 17 15 14 13 13 14 15 13 13 13 13 9 8 9 5 13 16 20 25 29 23 20 25 30
5 4 6 7 11 14 12 12 12 11 8 7 6 6 10 10 13 15 18 19 18 16 16 14 14 16 17 13 12 10 9 7 6 8 9 13 14 14 19 19 21 19 20 22 26
Wind_Direction
309 306 307 307 300 285 268 261 258 255 250 246 243 233 234 233 233 227 222 225 224 225 225 224 223 223 227 226 228 229 232 232 225 213 204 221 232 237 237 234 235 242 243 245 244
308 305 301 299 299 287 274 257 253 252 248 245 243 243 228 230 230 227 226 223 223 223 227 225 224 222 222 224 224 225 229 225 217 213 211 223 226 235 237 235 235 240 250 247 244
307 302 298 296 292 281 271 260 249 246 246 243 241 237 241 228 228 226 226 224 223 222 224 226 223 223 221 222 223 224 226 220 217 219 218 221 232 233 242 244 243 247 247 252 248
308 304 298 292 284 279 269 258 248 242 241 241 240 236 233 234 228 228 226 224 224 221 222 225 225 223 224 224 225 225 225 224 222 225 225 221 228 237 243 249 247 251 256 258 260
311 306 300 289 275 264 257 251 246 241 236 237 238 234 230 229 227 226 226 222 223 223 222 223 225 225 224 225 228 226 228 228 227 231 233 231 230 237 246 252 248 247 254 253 252
316 308 297 285 277 261 247 245 237 236 233 232 235 233 228 222 226 225 222 222 222 223 222 222 224 226 226 227 227 228 229 229 229 232 237 239 239 241 244 249 250 238 246 257 258
318 310 301 296 285 267 248 238 234 229 226 225 228 231 225 220 223 219 220 218 218 222 221 222 224 224 227 229 230 232 232 234 235 235 240 241 235 236 236 243 246 244 245 256 258
325 315 308 304 291 280 256 231 227 224 219 215 219 225 220 220 218 215 218 217 217 219 218 221 223 224 225 228 229 232 233 234 238 238 237 242 234 240 240 242 247 244 239 248 256
332 320 314 310 310 310 271 237 219 218 211 206 200 217 216 216 212 214 214 217 212 215 219 219 224 225 228 228 230 231 234 236 236 239 239 241 240 235 238 240 246 249 245 245 251
342 334 323 19 5 4 345 257 214 206 202 200 203 209 212 210 210 212 211 214 209 214 214 214 213 229 226 228 231 234 236 237 237 240 239 240 243 237 237 241 244 249 252 251 249
343 357 330 352 4 343 344 339 203 197 196 194 191 201 201 206 208 207 206 209 208 208 211 214 214 217 231 227 230 232 234 235 238 240 242 242 244 246 242 242 243 249 249 250 251
345 357 350 326 315 321 338 343 193 181 186 185 191 198 198 199 204 205 205 206 207 206 212 214 218 216 204 224 234 232 233 235 240 240 242 244 244 250 245 242 246 248 251 251 248
339 333 322 314 315 310 311 306 178 170 173 177 182 191 191 201 198 199 204 201 205 208 211 214 220 219 219 227 233 232 233 235 238 243 244 245 245 251 252 249 249 252 253 250 248
349 331 309 308 310 310 309 272 166 164 164 178 183 184 186 184 195 194 195 200 200 204 203 212 217 218 221 224 228 231 230 234 238 244 248 251 245 250 252 253 251 253 254 256 255
353 344 307 313 313 318 312 163 160 160 163 180 187 184 176 190 193 194 196 198 198 199 209 212 213 213 217 218 221 225 229 230 233 240 247 253 253 236 250 253 252 250 251 253 253
347 353 357 328 330 305 150 149 158 160 162 173 184 180 176 187 188 189 193 194 196 199 206 207 207 208 210 211 213 216 219 225 231 236 242 241 256 252 247 248 248 250 250 251 253
344 349 355 4 52 107 136 140 150 156 166 180 180 175 178 188 188 191 188 195 199 199 203 198 196 198 202 203 202 201 209 216 223 230 242 241 251 266 265 260 259 259 259 258 257
344 359 8 56 109 124 126 122 109 140 150 173 174 174 177 183 188 189 191 192 195 191 187 189 191 191 191 188 189 196 206 218 228 234 241 247 252 266 270 279 278 274 272 271 270
354 47 72 110 127 129 119 84 118 137 158 167 168 173 173 181 186 197 183 191 187 187 189 188 185 183 185 187 194 202 216 230 243 248 251 258 265 277 280 284 284 282 280 278 276
70 104 117 113 112 103 97 126 124 134 152 164 168 169 175 180 188 179 182 188 180 183 184 185 183 189 191 198 208 214 225 242 260 267 269 274 280 293 294 293 288 282 281 283 280
115 119 100 106 82 85 95 118 133 141 156 161 164 169 172 180 175 177 189 186 183 184 185 184 189 196 203 208 218 229 244 255 266 273 281 284 292 298 285 279 278 285 289 289 289
86 90 79 79 88 95 88 124 138 147 151 159 161 163 171 180 172 183 187 189 186 186 188 194 196 204 216 226 235 249 255 265 270 277 290 279 311 290 283 292 296 290 287 289 296
73 69 78 93 95 90 100 136 138 142 151 155 164 175 171 178 176 186 189 193 192 193 192 202 206 213 221 231 245 253 259 262 267 280 280 287 300 282 296 298 305 305 299 301 301
77 86 104 99 96 101 95 117 122 131 138 145 159 174 178 181 175 184 187 190 193 202 202 208 215 225 233 241 244 252 262 270 277 280 295 289 290 288 300 304 306 307 309 307 313
98 80 107 109 107 104 110 116 115 117 128 130 154 145 175 181 182 183 186 192 199 202 207 214 224 232 237 238 250 261 265 270 281 286 285 284 311 319 317 315 314 316 315 322 324
140 121 67 116 121 129 110 118 118 111 109 104 124 160 150 178 195 197 193 195 201 206 210 218 229 236 241 250 260 260 259 269 271 279 300 329 326 323 322 328 328 319 323 328 332
124 147 204 223 157 154 151 128 119 109 110 117 125 157 177 169 184 199 207 210 213 216 220 221 226 238 249 256 253 251 255 263 281 308 320 325 329 328 325 339 326 317 336 339 340
Height
5688 5685 5681 5676 5673 5668 5667 5667 5668 5669 5670 5671 5673 5676 5680 5686 5692 5701 5710 5713 5720 5726 5731 5737 5742 5746 5750 5755 5759 5764 5770 5777 5787 5791 5800 5797 5797 5798 5802 5807 5812 5814 5816 5820 5822
5680 5673 5668 5664 5660 5657 5654 5654 5655 5658 5659 5662 5665 5666 5670 5677 5683 5693 5696 5702 5710 5718 5724 5730 5735 5739 5745 5749 5752 5756 5762 5773 5782 5786 5790 5789 5790 5790 5795 5800 5806 5809 5811 5814 5817
5665 5660 5654 5649 5645 5642 5640 5639 5642 5645 5648 5651 5654 5658 5661 5667 5675 5681 5687 5695 5702 5709 5714 5720 5726 5733 5738 5742 5746 5751 5758 5768 5775 5779 5781 5784 5785 5788 5790 5795 5802 5804 5806 5806 5810
5652 5643 5633 5627 5626 5622 5621 5622 5625 5630 5635 5640 5643 5649 5654 5658 5667 5671 5679 5686 5692 5698 5706 5712 5719 5726 5733 5737 5742 5746 5753 5761 5768 5770 5773 5778 5780 5783 5784 5790 5798 5797 5798 5800 5802
5633 5620 5608 5599 5597 5599 5598 5602 5607 5614 5621 5628 5633 5639 5646 5653 5659 5663 5670 5676 5683 5690 5699 5705 5712 5719 5725 5732 5736 5741 5746 5753 5759 5763 5766 5772 5777 5779 5781 5784 5788 5791 5789 5791 5794
5605 5588 5572 5563 5559 5568 5574 5578 5587 5596 5606 5615 5622 5629 5637 5646 5646 5654 5661 5668 5675 5682 5690 5698 5706 5711 5718 5724 5729 5733 5739 5743 5750 5756 5760 5766 5772 5774 5778 5776 5778 5784 5785 5784 5787
5577 5556 5543 5535 5530 5532 5542 5554 5566 5579 5591 5603 5611 5617 5628 5633 5639 5646 5653 5660 5667 5675 5683 5690 5696 5705 5712 5716 5723 5726 5732 5738 5744 5751 5752 5755 5763 5766 5770 5767 5768 5775 5778 5780 5782
5553 5536 5525 5519 5514 5513 5519 5529 5545 5561 5576 5589 5599 5607 5619 5623 5631 5638 5646 5654 5660 5668 5675 5682 5689 5696 5703 5708 5714 5719 5724 5730 5737 5740 5743 5746 5757 5761 5762 5762 5762 5767 5771 5773 5775
5539 5524 5515 5510 5508 5507 5507 5512 5525 5546 5563 5577 5589 5599 5609 5617 5627 5630 5639 5647 5654 5662 5669 5677 5682 5690 5696 5702 5708 5712 5717 5723 5728 5731 5736 5739 5746 5753 5752 5755 5756 5759 5764 5766 5767
5532 5517 5510 5507 5506 5505 5504 5504 5513 5533 5551 5565 5578 5592 5603 5613 5617 5626 5632 5642 5649 5655 5663 5670 5679 5682 5689 5694 5701 5706 5711 5716 5721 5724 5730 5733 5735 5745 5746 5747 5751 5753 5756 5758 5760
5527 5516 5510 5508 5506 5504 5503 5501 5508 5523 5542 5559 5573 5585 5596 5603 5611 5620 5627 5637 5644 5650 5658 5664 5671 5678 5683 5688 5693 5697 5702 5708 5714 5718 5722 5727 5728 5737 5740 5740 5741 5744 5747 5749 5751
5524 5516 5512 5509 5505 5502 5501 5500 5504 5518 5541 5557 5568 5579 5591 5599 5608 5616 5624 5634 5641 5647 5653 5660 5666 5673 5678 5681 5687 5692 5697 5703 5706 5711 5715 5719 5723 5727 5731 5733 5733 5735 5738 5741 5743
5522 5516 5511 5507 5504 5501 5499 5497 5500 5518 5538 5555 5566 5576 5586 5596 5605 5614 5622 5631 5637 5644 5651 5657 5664 5668 5674 5678 5683 5687 5693 5697 5701 5704 5709 5713 5717 5720 5722 5725 5726 5726 5728 5730 5733
5518 5511 5507 5504 5502 5498 5495 5493 5498 5516 5536 5551 5563 5573 5584 5594 5603 5611 5618 5626 5634 5642 5646 5652 5659 5663 5668 5673 5679 5682 5686 5690 5695 5699 5702 5705 5709 5715 5714 5717 5718 5719 5721 5722 5723
5516 5506 5501 5498 5498 5495 5493 5492 5502 5520 5538 5555 5563 5574 5584 5594 5603 5608 5616 5624 5631 5639 5646 5650 5655 5660 5664 5670 5674 5679 5682 5686 5689 5693 5697 5700 5702 5712 5709 5709 5711 5712 5712 5713 5713
5515 5506 5498 5496 5494 5493 5493 5497 5510 5529 5542 5552 5562 5573 5583 5592 5601 5608 5616 5623 5629 5635 5640 5646 5651 5656 5661 5665 5670 5674 5678 5681 5685 5689 5692 5694 5696 5701 5703 5703 5703 5703 5704 5705 5705
5515 5506 5500 5497 5495 5495 5500 5510 5525 5533 5542 5554 5563 5575 5584 5593 5599 5607 5615 5622 5628 5634 5639 5644 5648 5652 5658 5662 5667 5672 5675 5678 5682 5685 5688 5691 5692 5694 5694 5694 5693 5694 5694 5694 5694
5514 5506 5503 5499 5500 5507 5517 5528 5532 5538 5546 5556 5568 5578 5586 5593 5600 5608 5615 5621 5627 5633 5638 5642 5646 5650 5655 5660 5665 5669 5673 5676 5679 5682 5684 5685 5687 5687 5685 5684 5685 5685 5684 5683 5681
5515 5509 5507 5508 5515 5520 5526 5531 5536 5545 5550 5559 5571 5582 5587 5593 5603 5607 5615 5621 5626 5632 5637 5640 5645 5650 5654 5658 5663 5667 5670 5674 5675 5676 5678 5680 5682 5681 5678 5676 5675 5674 5673 5671 5668
5519 5518 5521 5524 5528 5532 5537 5541 5548 5551 5560 5570 5577 5583 5590 5596 5602 5608 5615 5621 5627 5631 5636 5641 5645 5649 5653 5657 5661 5664 5667 5669 5670 5671 5672 5674 5675 5672 5671 5669 5666 5663 5660 5658 5655
5534 5537 5535 5539 5541 5543 5545 5548 5555 5561 5568 5576 5582 5588 5593 5599 5604 5610 5616 5622 5625 5630 5635 5640 5645 5650 5652 5655 5658 5662 5663 5665 5667 5667 5666 5667 5669 5665 5663 5661 5657 5654 5651 5646 5641
5552 5553 5552 5552 5554 5552 5556 5559 5563 5569 5574 5581 5586 5590 5596 5601 5605 5611 5616 5621 5625 5630 5636 5640 5643 5646 5649 5653 5656 5659 5660 5661 5661 5663 5661 5659 5665 5660 5654 5652 5649 5645 5641 5634 5626
5566 5565 5564 5562 5563 5562 5565 5568 5571 5576 5581 5585 5589 5593 5598 5601 5606 5611 5617 5621 5626 5630 5635 5639 5642 5645 5649 5653 5655 5655 5655 5656 5656 5657 5657 5653 5655 5650 5648 5644 5639 5634 5629 5622 5613
5581 5578 5576 5574 5573 5573 5574 5577 5581 5584 5587 5590 5594 5597 5601 5604 5609 5613 5617 5621 5626 5629 5633 5637 5640 5644 5647 5649 5651 5651 5651 5651 5651 5652 5651 5646 5649 5643 5641 5636 5632 5627 5621 5614 5604
5588 5588 5585 5585 5584 5583 5585 5585 5588 5590 5593 5596 5598 5600 5602 5607 5611 5614 5618 5621 5625 5629 5632 5636 5639 5642 5644 5646 5647 5647 5646 5646 5647 5647 5646 5644 5639 5638 5633 5628 5624 5619 5616 5608 5598
5593 5593 5593 5592 5591 5591 5591 5592 5594 5595 5596 5599 5600 5603 5605 5607 5610 5614 5618 5622 5625 5629 5632 5635 5637 5639 5640 5641 5642 5642 5642 5643 5643 5641 5641 5640 5638 5632 5629 5624 5619 5614 5610 5603 5593
5596 5595 5596 5596 5596 5596 5596 5597 5598 5599 5600 5602 5604 5605 5607 5610 5612 5614 5617 5620 5624 5627 5630 5633 5634 5635 5636 5637 5637 5639 5639 5638 5638 5638 5636 5635 5633 5630 5626 5622 5619 5612 5606 5598 5591